Satellite: RS-39 Catalog number: 38051 Epoch time: 13115.73048611 Element set: 382 Inclination: 051.6354 deg RA of node: 103.4811 deg Eccentricity: 0.0013708 Arg of perigee: 073.7816 deg Mean anomaly: 286.2146 deg Mean motion: 15.30953165 rev/day Decay rate: 9.398e-05 rev/day^2 Epoch rev: 6973 Checksum: 306
Satellite: E-STAR Catalog number: 38079 Epoch time: 13115.53273760 Element set: 70 Inclination: 069.4780 deg RA of node: 308.4678 deg Eccentricity: 0.0644189 Arg of perigee: 206.5609 deg Mean anomaly: 183.5339 deg Mean motion: 14.39392228 rev/day Decay rate: 5.5470e-04 rev/day^2 Epoch rev: 6214 Checksum: 325
Satellite: GOLIAT Catalog number: 38085 Epoch time: 13115.52886637 Element set: 989 Inclination: 069.4740 deg RA of node: 310.2631 deg Eccentricity: 0.0651749 Arg of perigee: 207.4855 deg Mean anomaly: 149.0696 deg Mean motion: 14.37646679 rev/day Decay rate: 5.4613e-04 rev/day^2 Epoch rev: 6209 Checksum: 346
Satellite: HORYU-2 Catalog number: 38340 Epoch time: 13114.83846668 Element set: 474 Inclination: 098.2101 deg RA of node: 062.0456 deg Eccentricity: 0.0013822 Arg of perigee: 063.7164 deg Mean anomaly: 296.5532 deg Mean motion: 14.70788240 rev/day Decay rate: 9.14e-06 rev/day^2 Epoch rev: 5027 Checksum: 292
Satellite: RS-40 Catalog number: 38736 Epoch time: 13115.66839922 Element set: 254 Inclination: 082.4813 deg RA of node: 187.8637 deg Eccentricity: 0.0022893 Arg of perigee: 082.5465 deg Mean anomaly: 277.8216 deg Mean motion: 12.42867390 rev/day Decay rate: 1.0e-07 rev/day^2 Epoch rev: 3372 Checksum: 320
Satellite: PROITERES Catalog number: 38756 Epoch time: 13115.85179711 Element set: 720 Inclination: 098.2553 deg RA of node: 191.9291 deg Eccentricity: 0.0011382 Arg of perigee: 274.1921 deg Mean anomaly: 085.7980 deg Mean motion: 14.74152956 rev/day Decay rate: 3.14e-06 rev/day^2 Epoch rev: 3368 Checksum: 311
Satellite: RAIKO Catalog number: 38852 Epoch time: 13115.70919905 Element set: 207 Inclination: 051.6404 deg RA of node: 357.9481 deg Eccentricity: 0.0014719 Arg of perigee: 170.8238 deg Mean anomaly: 189.3031 deg Mean motion: 15.68879575 rev/day Decay rate: 7.7046e-04 rev/day^2 Epoch rev: 3160 Checksum: 321
Satellite: FITSAT 1 Catalog number: 38853 Epoch time: 13115.09948883 Element set: 207 Inclination: 051.6423 deg RA of node: 358.3954 deg Eccentricity: 0.0012159 Arg of perigee: 182.2395 deg Mean anomaly: 177.8552 deg Mean motion: 15.74045134 rev/day Decay rate: 1.25102e-03 rev/day^2 Epoch rev: 3159 Checksum: 307
Satellite: TechEdSat Catalog number: 38854 Epoch time: 13115.74827905 Element set: 263 Inclination: 051.6296 deg RA of node: 346.8231 deg Eccentricity: 0.0013301 Arg of perigee: 223.1727 deg Mean anomaly: 136.8241 deg Mean motion: 15.99241013 rev/day Decay rate: 6.99860e-03 rev/day^2 Epoch rev: 3180 Checksum: 296
Satellite: F 1 Catalog number: 38855 Epoch time: 13115.71979602 Element set: 244 Inclination: 051.6249 deg RA of node: 348.1240 deg Eccentricity: 0.0012135 Arg of perigee: 209.1705 deg Mean anomaly: 150.8665 deg Mean motion: 15.93876645 rev/day Decay rate: 4.87209e-03 rev/day^2 Epoch rev: 3168 Checksum: 316
Satellite: WeWish Catalog number: 38856 Epoch time: 13069.98095549 Element set: 248 Inclination: 051.6166 deg RA of node: 215.0521 deg Eccentricity: 0.0008325 Arg of perigee: 316.0438 deg Mean anomaly: 044.8765 deg Mean motion: 16.41348316 rev/day Decay rate: 1.6701328e-01 rev/day^2 Epoch rev: 2458 Checksum: 318
Satellite: OSSI-1 Catalog number: 39130 Epoch time: 13115.81379825 Element set: 22 Inclination: 064.8803 deg RA of node: 013.0059 deg Eccentricity: 0.0017230 Arg of perigee: 203.9480 deg Mean anomaly: 156.0811 deg Mean motion: 14.99154376 rev/day Decay rate: -9.07e-06 rev/day^2 Epoch rev: 96 Checksum: 274
Satellite: BEESAT2-3 Catalog number: 39131 Epoch time: 13111.50052306 Element set: 2 Inclination: 064.9363 deg RA of node: 026.5170 deg Eccentricity: 0.0214649 Arg of perigee: 059.2674 deg Mean anomaly: 114.9122 deg Mean motion: 15.54454958 rev/day Decay rate: -1.974e-05 rev/day^2 Epoch rev: 32 Checksum: 269
Satellite: GRAHAM Catalog number: 39142 Epoch time: 13115.87802221 Element set: 14 Inclination: 051.6442 deg RA of node: 288.7476 deg Eccentricity: 0.0005501 Arg of perigee: 354.1848 deg Mean anomaly: 006.1492 deg Mean motion: 16.23101489 rev/day Decay rate: 2.496829e-02 rev/day^2 Epoch rev: 64 Checksum: 285
Satellite: BELL Catalog number: 39143 Epoch time: 13115.93695072 Element set: 19 Inclination: 051.6192 deg RA of node: 288.3393 deg Eccentricity: 0.0009337 Arg of perigee: 335.7831 deg Mean anomaly: 025.1381 deg Mean motion: 16.27132177 rev/day Decay rate: 3.947279e-02 rev/day^2 Epoch rev: 66 Checksum: 309
Satellite: ALEXANDER Catalog number: 39146 Epoch time: 13115.75196322 Element set: 8 Inclination: 051.6161 deg RA of node: 289.4007 deg Eccentricity: 0.0006311 Arg of perigee: 330.4052 deg Mean anomaly: 029.6754 deg Mean motion: 16.26554436 rev/day Decay rate: 4.294590e-02 rev/day^2 Epoch rev: 53 Checksum: 276
/EX